Regional Weather Roundup
Issued by NWS

Home | Current Version | Previous Version | Graphics & Text | Print | Product List | Glossary On
Versions: 1 2 3 4 5 6 7 8 9 10 11 12 13 14 15 16 17 18 19 20 21 22 23 24 25 26 27 28 29 30 31 32 33 34 35 36 37 38 39 40 41 42 43 44 45 46 47 48 49 50
000
ASUS44 KMEG 260600
RWRTN
TENNESSEE HOURLY STATE WEATHER ROUNDUP
NATIONAL WEATHER SERVICE MEMPHIS TN
100 AM CDT TUE JUL 26 2016

TNZ002-004-019-021-049-052-054-088>092-260700-
WEST TENNESSEE

CITY           SKY/WX    TMP DP  RH WIND       PRES   REMARKS
MEMPHIS INTL   CLEAR     83  75  77 E5        29.98F HX  90
NWS MEMPHIS      N/A     76 N/A N/A MISG        N/A
JACKSON        CLEAR     76  75  97 CALM      30.00S
DYERSBURG      CLEAR     75  73  94 MISG      29.99F
UNION CITY     CLEAR     73  73 100 CALM      29.99S
PARIS          CLEAR     72  72 100 CALM      30.01S
LEXINGTON      CLEAR     73  72  94 CALM      30.00F
$$

TNZ008-025-027-028-033-062-065-066-260700-
NORTH MIDDLE TENNESSEE

CITY           SKY/WX    TMP DP  RH WIND       PRES   REMARKS
NASHVILLE      CLEAR     79  72  79 N5        30.03R
CLARKSVILLE    CLEAR     73  71  93 CALM      30.01F
COOKEVILLE     CLEAR     75  73  94 CALM      30.03R
CROSSVILLE     CLOUDY    76  71  85 CALM      30.10R
$$

TNZ061-075-076-078-094-096-097-260700-
SOUTH MIDDLE TENNESSEE

CITY           SKY/WX    TMP DP  RH WIND       PRES   REMARKS
TULLAHOMA      CLEAR     73  73 100 CALM      30.06R
WINCHESTER     MOCLDY    75  72  88 SE6       30.05R
MCMINNVILLE    CLEAR     75  75 100 CALM      30.04S
COLUMBIA       CLEAR    N/A N/A N/A CALM      30.01S
SHELBYVILLE    CLEAR     77  75  94 CALM      30.03S
$$

TNZ017-018-042-046-047-260700-
NORTHEAST TENNESSEE

CITY           SKY/WX    TMP DP  RH WIND       PRES   REMARKS
TRI CITIES     CLOUDY    74  71  91 CALM      30.07S
$$

TNZ012-013-036-069-073-074-260700-
CENTRAL EAST TENNESSEE

CITY           SKY/WX    TMP DP  RH WIND       PRES   REMARKS
KNOXVILLE      PTCLDY    80  71  74 S3        30.02F
OAK RIDGE      CLEAR     80  72  76 CALM      30.05S
GATLINBURG     CLEAR     73  70  88 CALM      30.03F
$$

TNZ083-085-099-260700-
SOUTHEAST TENNESSEE

CITY           SKY/WX    TMP DP  RH WIND       PRES   REMARKS
CHATTANOOGA    MOCLDY    79  74  84 CALM      30.05S
$$

SKY/WX REPORTED AS FAIR MEANS FEW OR NO CLOUDS BELOW
12 THOUSAND FEET.





USA.gov is the U.S. government's official web portal to all federal, state and local government web resources and services.